Location: Ellingshausen
(50.5460°N, 10.4723°E)
Time: 23:27:48
(UTC+00:00)

SJ 16-02 - Pass Details

Date: 18 January 2026
Orbit: 583 x 594 km, 75.0° (Epoch: 9 February)

Event Time Altitude Azimuth Distance (km) Brightness Sun altitude
Rises 05:06:38 0° 167° (SSE) 2,793 5.0 -19.1°
Reaches altitude 10° 05:09:08 10° 153° (SSE) 1,899 4.3 -18.7°
Maximum altitude 05:12:32 24° 100° (E) 1,232 3.8 -18.2°
Drops below altitude 10° 05:15:57 10° 46° (NE) 1,914 4.3 -17.7°
Sets 05:18:29 0° 33° (NNE) 2,821 5.0 -17.3°
